Regional Weather Roundup
Issued by NWS Goodland, KS

Home | Current Version | Previous Version | Text Only | Print | Product List | Glossary Off
Versions: 1 2 3 4 5 6 7 8 9 10 11 12 13 14 15 16 17 18 19 20 21 22 23 24 25 26 27 28 29 30 31 32 33 34 35 36 37 38 39 40 41 42 43 44 45 46 47 48 49 50

000
ASUS43 KGLD 241408
RWRGLD

GOODLAND FORECAST AREA HOURLY WEATHER ROUNDUP
NATIONAL WEATHER SERVICE GOODLAND KS
800 AM MDT FRI MAR 24 2017

...OFFICIAL OBSERVATIONS...

CITY           SKY/WX    TMP DP  RH WIND       PRES   REMARKS
GOODLAND KS    TSTM      44  44 100 NE33G49   29.71R FOG
HILL CITY KS   CLOUDY    56  55  97 E13       29.72R
IMPERIAL NEB   CLOUDY    42  38  85 N30G44    29.86R
MCCOOK NEB     CLOUDY    44  41  89 N35G53    29.76R
AKRON CO       FLURRIES  38  36  92 N37G46    29.91R
BURLINGTON CO  HVY RAIN  41  39  93 N31G59    29.77R FOG
LIMON CO       LGT SNOW  32  32 100 N35G45    29.86R FOG     WCI  17
$$

...UNOFFICIAL OBSERVATIONS...

CITY           SKY/WX    TMP DP  RH WIND       PRES   REMARKS
LENORA KS        N/A     50  32  50 N10G18      N/A
NORTON KS      CLOUDY    45  39  81 N28G38    29.75R
SHARON SPRINGS   N/A     43  39  85 E6          N/A
TRENTON NEB      N/A     43  32  65 N20G26      N/A
KIT CARSON CO    N/A     41  37  87 MISG        N/A
YUMA CO        LGT RAIN  37  36  93 N35G44    29.85R
$$




USA.gov is the U.S. government's official web portal to all federal, state and local government web resources and services.